Benton Harbor, MI

8:53 PM EDT on March 27, 2017 (GMT -0400)
Southwest Michigan Regional

Weather History for KBEH - April, 2013

Change the Weather History Date:

Saturday, April 13, 2013

  Actual Average Record
Temperature  
Mean Temperature 38 °F -  
Max Temperature 43 °F 59 °F 77 °F (1960)
Min Temperature 36 °F 36 °F 18 °F (1950)
Degree Days  
Heating Degree Days 26    
Moisture  
Dew Point 29 °F    
Average Humidity 70    
Maximum Humidity 79    
Minimum Humidity 60    
Precipitation  
Precipitation 0.00 in - - ()
Sea Level Pressure  
Sea Level Pressure 29.90 in    
Wind  
Wind Speed 16 mph (WSW)    
Max Wind Speed 23 mph    
Max Gust Speed 31 mph    
Visibility 10 miles    
Events      
Averages and records for this station are not official NWS values.
T = Trace of Precipitation, MM = Missing Value Source: NWS Daily Summary

Daily Weather History Graph

Daily Weather History Graph

Search for Another Location

Airport or City:

Trip Planner

Search our weather history database for the weather conditions in past years. The results will help you decide how hot, cold, wet, or windy it might be!

Date:

Astronomy

Apr. 13, 2013 Rise Set
Actual Time 7:07 AM EDT 8:25 PM EDT
Civil Twilight 6:38 AM EDT 8:54 PM EDT
Nautical Twilight 6:04 AM EDT 9:28 PM EDT
Astronomical Twilight 5:27 AM EDT 10:05 PM EDT
Moon 8:56 AM EDT (4/13) 11:51 PM EDT (4/13)
Length of Visible Light 14h 15m
Length of Day
13h 17m
Waxing Crescent, 10% of the Moon is Illuminated
Apr 13
Waxing Crescent
Apr 18
First Quarter
Apr 25
Full
May 2
Last Quarter
May 9
New

Hourly Weather History & Observations

Time (EDT) Temp. Windchill Dew Point Humidity Pressure Visibility Wind Dir Wind Speed Gust Speed Precip Events Conditions
12:53 AM 37.9 °F 29.6 °F 30.9 °F 76% 29.84 in 10.0 mi West 13.8 mph - N/A   Overcast
1:53 AM 37.9 °F 28.9 °F 30.9 °F 76% 29.85 in 10.0 mi West 16.1 mph - N/A   Overcast
2:51 AM 37.4 °F 28.2 °F 30.2 °F 75% 29.84 in 10.0 mi WSW 16.1 mph - N/A   Overcast
2:53 AM 37.9 °F 29.6 °F 30.9 °F 76% 29.85 in 10.0 mi West 13.8 mph - N/A   Overcast
3:00 AM 37.4 °F 28.2 °F 30.2 °F 75% 29.84 in 10.0 mi West 16.1 mph 23.0 mph N/A   Overcast
3:11 AM 37.4 °F 28.5 °F 30.2 °F 75% 29.83 in 10.0 mi West 15.0 mph 23.0 mph N/A   Overcast
3:53 AM 37.9 °F 28.5 °F 30.9 °F 76% 29.85 in 10.0 mi West 17.3 mph 21.9 mph N/A   Overcast
4:53 AM 37.0 °F 27.4 °F 30.9 °F 79% 29.85 in 10.0 mi West 17.3 mph 21.9 mph N/A   Overcast
5:01 AM 37.4 °F 28.2 °F 30.2 °F 75% 29.83 in 10.0 mi West 16.1 mph - N/A   Overcast
5:53 AM 37.0 °F 27.7 °F 30.0 °F 76% 29.84 in 10.0 mi West 16.1 mph - N/A   Overcast
6:53 AM 37.0 °F 27.0 °F 28.0 °F 70% 29.85 in 10.0 mi West 18.4 mph - N/A   Overcast
7:53 AM 36.0 °F 24.4 °F 27.0 °F 70% 29.86 in 10.0 mi West 23.0 mph 31.1 mph N/A   Overcast
8:53 AM 36.0 °F 26.3 °F 28.0 °F 73% 29.87 in 10.0 mi WSW 16.1 mph 24.2 mph N/A   Overcast
9:53 AM 37.0 °F 26.2 °F 28.0 °F 70% 29.87 in 10.0 mi West 21.9 mph 27.6 mph N/A   Overcast
10:37 AM 37.4 °F 26.6 °F 28.4 °F 70% 29.87 in 10.0 mi WSW 21.9 mph 26.5 mph N/A   Overcast
10:53 AM 37.9 °F 28.2 °F 30.0 °F 73% 29.89 in 10.0 mi WSW 18.4 mph 27.6 mph N/A   Overcast
11:30 AM 37.4 °F 27.2 °F 30.2 °F 75% 29.88 in 10.0 mi WSW 19.6 mph 28.8 mph N/A   Overcast
11:53 AM 39.0 °F 28.8 °F 30.9 °F 73% 29.91 in 10.0 mi WSW 21.9 mph 29.9 mph N/A   Overcast
12:10 PM 39.2 °F 28.7 °F 30.2 °F 70% 29.89 in 10.0 mi WSW 23.0 mph 29.9 mph N/A   Overcast
12:48 PM 39.2 °F 29.3 °F 28.4 °F 65% 29.90 in 10.0 mi WSW 20.7 mph 28.8 mph N/A   Overcast
12:53 PM 39.9 °F 30.2 °F 30.0 °F 68% 29.92 in 10.0 mi WSW 20.7 mph - N/A   Overcast
1:10 PM 39.2 °F 29.6 °F 30.2 °F 70% 29.91 in 10.0 mi West 19.6 mph 28.8 mph N/A   Overcast
1:17 PM 39.2 °F 29.3 °F 28.4 °F 65% 29.92 in 10.0 mi West 20.7 mph 27.6 mph N/A   Overcast
1:53 PM 39.9 °F 30.2 °F 30.0 °F 68% 29.94 in 10.0 mi West 20.7 mph - N/A   Overcast
2:53 PM 39.9 °F 31.1 °F 28.9 °F 65% 29.95 in 10.0 mi West 17.3 mph 25.3 mph N/A   Overcast
3:53 PM 41.0 °F 32.5 °F 28.0 °F 60% 29.95 in 10.0 mi WSW 17.3 mph 25.3 mph N/A   Overcast
4:53 PM 41.0 °F 32.8 °F 28.0 °F 60% 29.96 in 10.0 mi WSW 16.1 mph - N/A   Overcast
5:53 PM 41.0 °F 33.9 °F 28.9 °F 62% 29.96 in 10.0 mi WSW 12.7 mph - N/A   Overcast
6:53 PM 41.0 °F 34.7 °F 28.0 °F 60% 29.97 in 10.0 mi WSW 10.4 mph - N/A   Mostly Cloudy
8:53 PM 39.0 °F 35.7 °F 28.0 °F 65% 29.97 in 10.0 mi WSW 4.6 mph - N/A   Overcast
9:53 PM 37.9 °F 34.4 °F 28.0 °F 68% 29.99 in 10.0 mi West 4.6 mph - N/A   Overcast
10:53 PM 39.0 °F - 28.9 °F 67% 30.00 in 10.0 mi Calm Calm - N/A   Overcast
11:53 PM 36.0 °F - 27.0 °F 70% 30.00 in 10.0 mi Calm Calm - N/A   Scattered Clouds